OpenBCM V2.0.3 (Linux)

Packet Radio Mailbox

IZ3LSV

[San Dona' di P. JN]

 Login: GUEST





  
LU9DCE > KEPS     29.12.17 21:46l 252 Lines 12508 Bytes #999 (0) @ LUNET
BID : 27920_LU9DCE
Read: GUEST
Subj: SAT TLE OF 23
Path: IZ3LSV<IQ2LB<IK1NHL<CX2SA<HP2BWJ<LU4ECL<LW2DQC<LU9DCE
Sent: 171223/1601Z @:LU9DCE.TOR.BA.ARG.SOAM #:27920 [TORTUGUITAS] FBB7.0.8-beta
From: LU9DCE@LU9DCE.TOR.BA.ARG.SOAM
To  : KEPS@LUNET


            __    _  _  ___  ____   ___  ____    ____  ____  ____
           (  )  / )( \/ _ \(    \ / __)(  __)  (  _ \(  _ \/ ___)
           / (_/\) \/ (\__  )) D (( (__  ) _)    ) _ ( ) _ (\___ \
           \____/\____/(___/(____/ \___)(____)  (____/(____/(____/
               ESTACION DE PACKET RADIO - BUENOS AIRES (GF05OM)
                   BOLETINES INFORMATIVOS PROGRAMADOS (BIP)
                    LU9DCE@GMX.COM - RF 147070 @ 1200 BAUD
                        https://lu9dce.wordpress.com/

+------------------------------------------------------------------------------+
OSCAR 7
1 07530U 74089B   17356.88938932 -.00000029  00000-0  96663-4 0  9991
2 07530 101.6610 322.0471 0012021 318.1275  97.6488 12.53630357972504
OSCAR 11 (UoSAT 2)
1 14781U 84021B   17356.76128840  .00000097  00000-0  18113-4 0  9998
2 14781  97.6733  35.2703 0007278 307.8458  52.2097 14.82967331818294
OSCAR 19 (LUSAT)
1 20442U 90005G   17357.38315747  .00000010  00000-0  19937-4 0  9991
2 20442  98.5941 292.1162 0010969 313.3660  46.6610 14.32882118458716
KITSAT B
1 22825U 93061C   17356.90011196 +.00000001 +00000-0 +18183-4 0  9993
2 22825 098.8395 325.0522 0009083 135.6652 224.5258 14.30017136264107
POSAT 1
1 22826U 93061D   17356.88773831 +.00000008 +00000-0 +20823-4 0  9993
2 22826 098.8337 325.0992 0009727 126.6399 233.5679 14.30347591264308
RADIO ROSTO
1 23439U 94085A   17356.92810071 -.00000056 +00000-0 -39096-3 0  9990
2 23439 064.8170 273.8983 0162930 213.3085 230.3132 11.27566301946692
JAS 2
1 24278U 96046B   17357.09289633 -.00000025  00000-0  11180-4 0  9994
2 24278  98.5327 214.9435 0349854 207.5872 150.6313 13.53080421 54422
TECHSAT 1B
1 25397U 98043D   17356.90433408 +.00000002 +00000-0 +19701-4 0  9997
2 25397 098.6318 295.4368 0001765 133.4388 226.6938 14.23636420010423
ISS (ZARYA)
1 25544U 98067A   17357.47419451  .00001074  00000-0  23394-4 0  9995
2 25544  51.6398 174.6935 0002586 278.4499 123.9533 15.54204848 91190
PCSAT
1 26931U 01043C   17357.16514505 -.00000031  00000-0  19884-4 0  9998
2 26931  67.0518 323.5955 0005223 271.6649  88.3854 14.30488158847376
SAUDISAT 1C
1 27607U 02058C   17356.91542983 +.00000035 +00000-0 +25699-4 0  9993
2 27607 064.5559 268.8057 0043644 013.7949 346.4335 14.75404922806828
CUTE-1
1 27844U 03031E   17356.92198752 +.00000052 +00000-0 +43194-4 0  9999
2 27844 098.6885 003.1719 0010205 156.2822 203.8827 14.22083869751103
CUBESAT XI 4
1 27848U 03031J   17356.69173305 +.00000037 +00000-0 +36584-4 0  9992
2 27848 098.6976 003.2803 0009880 166.3817 193.7629 14.21692089750954
MOZHAYETS 4
1 27939U 03042A   17357.50331818  .00000086  00000-0  23861-4 0  9999
2 27939  97.9643 136.4673 0012643 351.6389  74.8405 14.66642067761061
CUBESAT XI 5
1 28895U 05043F   17357.43026395  .00000150  00000-0  37673-4 0  9995
2 28895  97.8843 151.2690 0015541 264.4875  95.4555 14.63489123648168
CUTE-1.7+APD II
1 32785U 08021C   17357.20924616  .00000249  00000-0  32749-4 0  9993
2 32785  97.5548  12.7320 0011644 261.0134  98.9765 14.88032128523004
DELFI C3
1 32789U 08021G   17357.21955118  .00001399  00000-0  10104-3 0  9996
2 32789  97.5372  51.3061 0012981 171.4605 188.6846 15.05614366525308
SEEDS
1 32791U 08021J   17357.11271717  .00000277  00000-0  33871-4 0  9995
2 32791  97.5483  17.5619 0012109 241.6265 118.3734 14.90425686523280
YUBELEINY
1 32953U 08025A   17356.85880730  .00000029  00000-0  13560-3 0  9997
2 32953  82.5026 122.3434 0018839 232.0455 127.8923 12.43080674434868
PRISM (HITOMI)
1 33493U 09002B   17357.40583302  .00001286  00000-0  12007-3 0  9991
2 33493  98.1472 247.5896 0015087 171.0541 189.0908 14.96018516484064
KKS-1 (KISEKI)
1 33499U 09002H   17356.90650022 +.00000123 +00000-0 +26257-4 0  9997
2 33499 098.3449 168.0346 0010167 129.3148 230.8963 14.75276099478761
SWISSCUBE
1 35932U 09051B   17356.97574667  .00000164  00000-0  48030-4 0  9990
2 35932  98.5202 139.1726 0008193  38.6009 321.5772 14.56102330437798
BEESAT
1 35933U 09051C   17356.94718232 +.00000141 +00000-0 +42762-4 0  9997
2 35933 098.5240 140.5766 0006640 052.5264 307.6536 14.56212072437815
ITUPSAT 1
1 35935U 09051E   17356.97153863  .00000114  00000-0  37424-4 0  9994
2 35935  98.5353 140.8561 0008841  45.1728 315.0185 14.55396288437696
XIWANG-1 (HOPE-1)
1 36122U 09072B   17356.90886789 -.00000056 +00000-0 -36982-4 0  9994
2 36122 100.0865 014.7214 0007780 155.3660 204.7827 13.16342713385358
TISAT 1
1 36799U 10035E   17357.32265409  .00000455  00000-0  52456-4 0  9997
2 36799  98.0832 124.1789 0013531  68.9636 291.3027 14.90646341403952
JUGNU
1 37839U 11058B   17357.24577542  .00000312  00000-0  24416-4 0  9991
2 37839  19.9628  24.1116 0019177 107.0942 326.2042 14.12604844320468
SRMSAT
1 37841U 11058D   17357.51749691  .00000288  00000-0  13386-4 0  9996
2 37841  19.9728  68.0431 0011958   1.8724 119.5383 14.10594917320049
M-CUBED/EXP-1 PRIME
1 37855U 11061F   17356.86801153  .00001665  00000-0  93482-4 0  9999
2 37855 101.7191 324.2100 0177997 243.8580 114.4227 15.03925084335146
HORYU 2
1 38340U 12025D   17357.09833272  .00000236  00000-0  42749-4 0  9996
2 38340  98.3754   7.6896 0012583  55.0513 305.1875 14.75470621301145
STRAND 1
1 39090U 13009E   17356.63418299 +.00000034 +00000-0 +27319-4 0  9991
2 39090 098.5347 200.1398 0010275 100.1864 260.0480 14.35002688252485
BEESAT 3
1 39134U 13015E   17356.94360890 +.00001462 +00000-0 +79253-4 0  9994
2 39134 064.8660 336.8008 0029739 234.3184 125.5174 15.18648253257759
SOMP
1 39135U 13015F   17356.81395298  .00001298  00000-0  76255-4 0  9997
2 39135  64.8692 348.3321 0031183 256.6662 103.0986 15.16254668257905
BEESAT 2
1 39136U 13015G   17356.45887152 +.00001369 +00000-0 +80906-4 0  9990
2 39136 064.8699 351.7939 0032533 256.4773 103.2727 15.15741913257411
CUBEBUG 1
1 39153U 13018D   17357.23068151  .00000257  00000-0  40599-4 0  9998
2 39153  97.9833  88.5161 0017709 152.6004 207.6146 14.80311606251568
ZACUBE
1 39417U 13066B   17357.16420127  .00000254  00000-0  38566-4 0  9999
2 39417  97.6076  30.0150 0059437  13.0677 347.2060 14.80846136220740
TRITON 1
1 39427U 13066M   17356.92287711 +.00000234 +00000-0 +45018-4 0  9991
2 39427 097.6362 359.6139 0115576 103.9682 257.4408 14.67584497218534
GOMX 1
1 39430U 13066Q   17357.53469763  .00000178  00000-0  41109-4 0  9996
2 39430  97.6791 342.2753 0152010 164.5936 195.9970 14.58993240217543
HUMSAT D
1 39433U 13066T   17356.89960427 +.00000565 +00000-0 +61290-4 0  9993
2 39433 097.6298 054.2227 0029842 311.1547 048.7098 14.91694462220965
50 SAT
1 39436U 13066W   17356.87376337  .00047877  00000-0  76657-3 0  9994
2 39436  97.7126 113.9268 0006107 121.1195 239.0657 15.52959686225752
CUBEBUG 2
1 39440U 13066AA  17356.63371086  .00000266  00000-0  43946-4 0  9996
2 39440  97.6127  17.2669 0081674  49.5718 311.2579 14.75583213219880
FUNCUBE 1
1 39444U 13066AE  17356.64357630 +.00000309 +00000-0 +44680-4 0  9994
2 39444 097.6091 030.8194 0058514 010.8520 349.3940 14.81605963218929
UWE-3
1 39446U 13066AG  17356.95873048 +.00000261 +00000-0 +41456-4 0  9991
2 39446 097.6089 023.3546 0071008 031.4772 329.0659 14.78116708218491
SPROUT
1 39770U 14029E   17357.52866851  .00000852  00000-0  10217-3 0  9995
2 39770  97.8763  95.1325 0010488  69.7209 290.5150 14.86598146194263
UNISAT 6
1 40012U 14033C   17356.89393958 +.00000236 +00000-0 +42779-4 0  9998
2 40012 097.8313 234.4238 0059612 047.8337 312.7913 14.73739205188735
DUCHIFAT 1
1 40021U 14033M   17357.20594735  .00000458  00000-0  53187-4 0  9991
2 40021  97.9170 270.6098 0014051  42.7963 317.4346 14.90145216190748
QB50P1
1 40025U 14033R   17356.70612074 +.00000369 +00000-0 +45635-4 0  9996
2 40025 097.9087 267.4308 0013634 049.4904 310.7498 14.88599715190021
CHUBUSAT 1
1 40300U 14070C   17357.15222633  .00001005  00000-0  47784-4 0  9996
2 40300  97.3825  73.4896 0020891 154.9563 265.1402 15.21305182173518
NUDT-PHONESAT
1 40900U 15049B   17356.98589072  .00002346  00000-0  11019-3 0  9992
2 40900  97.4425   2.3646 0012096 288.4441  71.5480 15.20557939125139
ZDPS 2A
1 40901U 15049C   17357.47920174  .00001040  00000-0  56328-4 0  9993
2 40901  97.4585   1.6235 0012299 291.2641  68.7279 15.16753520125023
ZDPS 2B
1 40902U 15049D   17357.23206190  .00000953  00000-0  52210-4 0  9991
2 40902  97.4469 359.7037 0012361 288.9344  71.0549 15.16566426124972
XW-2A
1 40903U 15049E   17357.49494016  .00002049  00000-0  53744-4 0  9997
2 40903  97.4044  25.4718 0013043 308.5003  51.5072 15.39798743126761
KAITUO 1A
1 40904U 15049F   17357.45848601  .00000529  00000-0  31966-4 0  9990
2 40904  97.4561 359.3828 0013309 290.5013 227.5657 15.14819390124894
OBJECT G
1 40905U 15049G   17357.53009518  .00000465  00000-0  29306-4 0  9990
2 40905  97.4547 357.8309 0014292 279.7412  80.2205 15.13806724124844
XW-2C
1 40906U 15049H   17357.50496464  .00000755  00000-0  43985-4 0  9999
2 40906  97.4573 359.2839 0013532 280.1983  79.7723 15.14939114124897
XW-2D
1 40907U 15049J   17357.53988572  .00000827  00000-0  47664-4 0  9997
2 40907  97.4545 359.0400 0012880 277.9015  82.0755 15.15071258124905
LILACSAT 2
1 40908U 15049K   17357.20877974  .00000436  00000-0  28051-4 0  9990
2 40908  97.4651 358.2925 0014507 278.9779  80.9810 15.13360416124750
XW-2F
1 40910U 15049M   17356.95952596  .00001231  00000-0  67201-4 0  9992
2 40910  97.4556 359.4705 0013643 276.4131  83.5548 15.16139871124749
XW-2B
1 40911U 15049N   17356.95687218  .00000819  00000-0  47283-4 0  9998
2 40911  97.4584 358.9347 0012804 280.7089  79.2702 15.15021388124718
KAITUO 1B
1 40912U 15049P   17357.20970116  .00001797  00000-0  90724-4 0  9994
2 40912  97.4505   2.0857 0013581 264.3275 159.9479 15.18314521124964
